| time (UTC) | temp F | wind direction | speed MPH | gust MPH | rain 1hr in | rain 24hr in | rain mn in | humidity % | barometer mb |
| 20260831024610 | 75 | 0 | 0.0 | 2.0 | 0.00 | 0.00 | 0.00 | 71 | 1011.6 |
| 20260831023056 | 76 | 196 | 0.0 | 2.0 | 0.00 | 0.00 | 0.00 | 69 | 1011.5 |
| 20260831021557 | 78 | 201 | 1.0 | 4.0 | 0.00 | 0.00 | 0.00 | 66 | 1011.1 |
| 20260831020055 | 79 | 0 | 1.0 | 5.0 | 0.00 | 0.00 | 0.00 | 64 | 1011.0 |
| 20260831014558 | 81 | 205 | 1.0 | 4.0 | 0.00 | 0.00 | 0.00 | 60 | 1011.0 |
| 20260831013107 | 82 | 196 | 1.0 | 5.0 | 0.00 | 0.00 | 0.00 | 57 | 1010.9 |
| 20260831011557 | 84 | 223 | 2.0 | 5.0 | 0.00 | 0.00 | 0.00 | 53 | 1010.9 |
| 20260831010101 | 84 | 235 | 2.0 | 8.0 | 0.00 | 0.00 | 0.00 | 53 | 1011.0 |
| 20260831004605 | 86 | 233 | 2.0 | 6.0 | 0.00 | 0.00 | 0.00 | 50 | 1011.0 |
| 20260831003054 | 86 | 275 | 1.0 | 6.0 | 0.00 | 0.00 | 0.00 | 49 | 1011.0 |
| 20260831001603 | 86 | 232 | 1.0 | 7.0 | 0.00 | 0.00 | 0.00 | 51 | 1011.0 |
| 20260831000101 | 86 | 277 | 3.0 | 8.0 | 0.00 | 0.00 | 0.00 | 48 | 1011.0 |
| 20260830234558 | 88 | 225 | 2.0 | 7.0 | 0.00 | 0.00 | 0.00 | 43 | 1010.9 |
| 20260830233112 | 88 | 265 | 2.0 | 6.0 | 0.00 | 0.00 | 0.00 | 44 | 1011.0 |
| 20260830231604 | 87 | 278 | 4.0 | 8.0 | 0.00 | 0.00 | 0.00 | 44 | 1011.0 |
| 20260830230057 | 89 | 252 | 2.0 | 8.0 | 0.00 | 0.00 | 0.00 | 45 | 1011.0 |
| 20260830224559 | 90 | 284 | 2.0 | 7.0 | 0.00 | 0.00 | 0.00 | 42 | 1011.1 |
| 20260830223112 | 91 | 274 | 4.0 | 9.0 | 0.00 | 0.00 | 0.00 | 39 | 1011.1 |
| 20260830221609 | 92 | 96 | 2.0 | 5.0 | 0.00 | 0.00 | 0.00 | 37 | 1011.2 |
| 20260830220101 | 91 | 240 | 2.0 | 5.0 | 0.00 | 0.00 | 0.00 | 39 | 1011.3 |
| 20260830214609 | 91 | 179 | 3.0 | 7.0 | 0.00 | 0.00 | 0.00 | 41 | 1011.5 |
| 20260830213108 | 91 | 173 | 4.0 | 10.0 | 0.00 | 0.00 | 0.00 | 42 | 1011.6 |
| 20260830211607 | 90 | 123 | 3.0 | 9.0 | 0.00 | 0.00 | 0.00 | 43 | 1011.9 |
| 20260830210108 | 91 | 266 | 2.0 | 12.0 | 0.00 | 0.00 | 0.00 | 42 | 1012.0 |
| 20260830204601 | 90 | 266 | 3.0 | 8.0 | 0.00 | 0.00 | 0.00 | 43 | 1012.1 |
| 20260830203109 | 91 | 267 | 3.0 | 7.0 | 0.00 | 0.00 | 0.00 | 45 | 1012.0 |
| 20260830201558 | 92 | 265 | 2.0 | 7.0 | 0.00 | 0.00 | 0.00 | 44 | 1012.0 |
| 20260830200107 | 92 | 215 | 2.0 | 8.0 | 0.00 | 0.00 | 0.00 | 44 | 1012.1 |
| 20260830194603 | 90 | 182 | 3.0 | 11.0 | 0.00 | 0.00 | 0.00 | 46 | 1012.1 |
| 20260830193108 | 91 | 285 | 3.0 | 8.0 | 0.00 | 0.00 | 0.00 | 45 | 1012.2 |
| 20260830191605 | 91 | 255 | 1.0 | 6.0 | 0.00 | 0.00 | 0.00 | 45 | 1012.3 |
| 20260830184557 | 91 | 248 | 2.0 | 5.0 | 0.00 | 0.00 | 0.00 | 42 | 1012.7 |
| 20260830183058 | 89 | 206 | 4.0 | 6.0 | 0.00 | 0.00 | 0.00 | 46 | 1012.6 |
| 20260830181558 | 88 | 251 | 3.0 | 7.0 | 0.00 | 0.00 | 0.00 | 52 | 1012.7 |
| 20260830180114 | 87 | 248 | 3.0 | 5.0 | 0.00 | 0.00 | 0.00 | 55 | 1012.7 |
| 20260830174612 | 86 | 193 | 2.0 | 6.0 | 0.00 | 0.00 | 0.00 | 55 | 1012.8 |
| 20260830173059 | 85 | 259 | 3.0 | 6.0 | 0.00 | 0.00 | 0.00 | 55 | 1012.7 |
| 20260830171605 | 84 | 142 | 0.0 | 3.0 | 0.00 | 0.00 | 0.00 | 61 | 1012.5 |
| 20260830170100 | 83 | 79 | 1.0 | 3.0 | 0.00 | 0.00 | 0.00 | 64 | 1012.4 |
| 20260830164604 | 81 | 0 | 2.0 | 5.0 | 0.00 | 0.00 | 0.00 | 66 | 1012.5 |
| 20260830163105 | 80 | 271 | 1.0 | 3.0 | 0.00 | 0.00 | 0.00 | 68 | 1012.4 |
| 20260830161606 | 79 | 192 | 0.0 | 3.0 | 0.00 | 0.00 | 0.00 | 70 | 1012.6 |
| 20260830154558 | 75 | 282 | 1.0 | 3.0 | 0.00 | 0.00 | 0.00 | 79 | 1012.7 |
| 20260830153106 | 72 | 39 | 0.0 | 2.0 | 0.00 | 0.00 | 0.00 | 85 | 1012.7 |
| 20260830151605 | 71 | 203 | 1.0 | 2.0 | 0.00 | 0.00 | 0.00 | 88 | 1012.7 |
| 20260830150058 | 70 | 260 | 0.0 | 3.0 | 0.00 | 0.00 | 0.00 | 89 | 1012.7 |
| 20260830144554 | 70 | 37 | 0.0 | 1.0 | 0.00 | 0.00 | 0.00 | 90 | 1012.7 |
| 20260830143104 | 70 | 0 | 0.0 | 1.0 | 0.00 | 0.00 | 0.00 | 90 | 1012.7 |
| 20260830141601 | 69 | 0 | 0.0 | 2.0 | 0.00 | 0.00 | 0.00 | 90 | 1012.5 |
| 20260830140106 | 69 | 0 | 0.0 | 1.0 | 0.00 | 0.00 | 0.00 | 91 | 1012.5 |
| 20260830134557 | 69 | 0 | 0.0 | 1.0 | 0.00 | 0.00 | 0.00 | 91 | 1012.3 |
| 20260830133105 | 69 | 0 | 1.0 | 1.0 | 0.00 | 0.00 | 0.00 | 90 | 1012.3 |
| 20260830131610 | 69 | 45 | 1.0 | 3.0 | 0.00 | 0.00 | 0.00 | 90 | 1012.1 |
| 20260830130101 | 69 | 0 | 0.0 | 0.0 | 0.00 | 0.00 | 0.00 | 91 | 1012.1 |
| 20260830124620 | 69 | 0 | 0.0 | 3.0 | 0.00 | 0.00 | 0.00 | 90 | 1012.1 |
| 20260830123102 | 69 | 0 | 0.0 | 2.0 | 0.00 | 0.00 | 0.00 | 90 | 1012.0 |
| 20260830121603 | 70 | 210 | 1.0 | 3.0 | 0.00 | 0.00 | 0.00 | 90 | 1012.0 |
| 20260830120059 | 70 | 197 | 0.0 | 1.0 | 0.00 | 0.00 | 0.00 | 90 | 1011.9 |
| 20260830114608 | 70 | 0 | 0.0 | 1.0 | 0.00 | 0.00 | 0.00 | 90 | 1011.9 |
| 20260830113100 | 69 | 0 | 0.0 | 2.0 | 0.00 | 0.00 | 0.00 | 90 | 1011.9 |
| 20260830111556 | 69 | 0 | 0.0 | 1.0 | 0.00 | 0.00 | 0.00 | 90 | 1011.8 |
| 20260830110109 | 69 | 0 | 0.0 | 0.0 | 0.00 | 0.00 | 0.00 | 90 | 1011.7 |
| 20260830104607 | 68 | 0 | 0.0 | 0.0 | 0.00 | 0.00 | 0.00 | 90 | 1011.8 |
| 20260830103106 | 68 | 0 | 0.0 | 0.0 | 0.00 | 0.00 | 0.00 | 89 | 1011.7 |
| 20260830101609 | 68 | 0 | 0.0 | 0.0 | 0.00 | 0.00 | 0.00 | 88 | 1011.5 |
| 20260830100057 | 68 | 0 | 0.0 | 0.0 | 0.00 | 0.00 | 0.00 | 88 | 1011.5 |
| 20260830094558 | 69 | 0 | 0.0 | 0.0 | 0.00 | 0.00 | 0.00 | 87 | 1011.5 |
| 20260830093057 | 69 | 0 | 0.0 | 0.0 | 0.00 | 0.00 | 0.00 | 87 | 1011.6 |
| 20260830091606 | 69 | 0 | 0.0 | 0.0 | 0.00 | 0.00 | 0.00 | 87 | 1011.7 |
| 20260830090110 | 69 | 0 | 0.0 | 0.0 | 0.00 | 0.00 | 0.00 | 86 | 1011.6 |
| 20260830084558 | 70 | 0 | 0.0 | 0.0 | 0.00 | 0.00 | 0.00 | 86 | 1011.5 |
| 20260830083156 | 70 | 0 | 0.0 | 0.0 | 0.00 | 0.00 | 0.00 | 86 | 1011.6 |
| 20260830081600 | 70 | 0 | 0.0 | 0.0 | 0.00 | 0.00 | 0.00 | 85 | 1011.6 |
| 20260830080058 | 70 | 0 | 0.0 | 0.0 | 0.00 | 0.00 | 0.00 | 85 | 1011.6 |
| 20260830074557 | 70 | 0 | 0.0 | 0.0 | 0.00 | 0.00 | 0.00 | 84 | 1011.7 |
| 20260830073111 | 71 | 0 | 0.0 | 0.0 | 0.00 | 0.00 | 0.00 | 84 | 1011.8 |
| 20260830071600 | 71 | 0 | 0.0 | 0.0 | 0.00 | 0.00 | 0.00 | 83 | 1011.8 |
| 20260830070107 | 71 | 0 | 0.0 | 0.0 | 0.00 | 0.00 | 0.00 | 82 | 1011.9 |
| 20260830064555 | 72 | 0 | 0.0 | 0.0 | 0.00 | 0.00 | 0.00 | 81 | 1011.8 |
| 20260830063103 | 72 | 203 | 0.0 | 0.0 | 0.00 | 0.00 | 0.00 | 81 | 1011.7 |
| 20260830061557 | 72 | 0 | 0.0 | 0.0 | 0.00 | 0.00 | 0.00 | 80 | 1011.7 |
| 20260830060059 | 72 | 0 | 0.0 | 0.0 | 0.00 | 0.00 | 0.00 | 78 | 1011.7 |
| 20260830054609 | 73 | 0 | 0.0 | 0.0 | 0.00 | 0.00 | 0.00 | 77 | 1011.9 |
| 20260830053058 | 74 | 0 | 0.0 | 0.0 | 0.00 | 0.00 | 0.00 | 77 | 1011.8 |
| 20260830051558 | 74 | 0 | 0.0 | 0.0 | 0.00 | 0.00 | 0.00 | 76 | 1011.8 |
| 20260830050105 | 75 | 0 | 0.0 | 0.0 | 0.00 | 0.00 | 0.00 | 75 | 1011.9 |
| 20260830044602 | 76 | 203 | 0.0 | 1.0 | 0.00 | 0.00 | 0.00 | 74 | 1011.8 |
| 20260830043101 | 76 | 272 | 0.0 | 1.0 | 0.00 | 0.00 | 0.00 | 73 | 1011.7 |
| 20260830041557 | 77 | 147 | 0.0 | 1.0 | 0.00 | 0.00 | 0.00 | 72 | 1011.5 |
| 20260830040111 | 77 | 238 | 0.0 | 1.0 | 0.00 | 0.00 | 0.00 | 71 | 1011.3 |
| 20260830034600 | 78 | 0 | 0.0 | 1.0 | 0.00 | 0.00 | 0.00 | 71 | 1011.2 |
| 20260830033058 | 79 | 0 | 0.0 | 1.0 | 0.00 | 0.00 | 0.00 | 69 | 1011.0 |
| 20260830031621 | 80 | 0 | 0.0 | 1.0 | 0.00 | 0.00 | 0.00 | 67 | 1010.9 |